Location: Krasnoyarskiy Pitomnik
(51.1333°N, 71.6167°E)
Time: 09:10:49
(UTC+00:00)

COSMO-SKYMED 1 - Pass Details

Date: 22 October 2021
Orbit: 621 x 623 km, 97.9° (Epoch: 06 December)

Event Time Altitude Azimuth Distance (km) Brightness Sun altitude
Rises 13:57:53 0° 10° (N) 2,919 6.0 -18.1°
Reaches altitude 10° 14:00:07 10° 6° (N) 2,008 5.2 -18.5°
Maximum altitude 14:04:21 53° 290° (WNW) 775 3.4 -19.1°
Drops below altitude 10° 14:08:34 10° 214° (SW) 1,991 5.5 -19.8°
Sets 14:10:47 0° 210° (SSW) 2,893 6.3 -20.1°
